TimeEDT,TemperatureF,Dew PointF,Humidity,Sea Level PressureIn,VisibilityMPH,Wind Direction,Wind SpeedMPH,Gust SpeedMPH,PrecipitationIn,Events,Conditions,WindDirDegrees,DateUTC
12:53 AM,15.1,-2.9,45,29.94,10.0,West,8.1,-,N/A,,Clear,280,2014-03-14 04:53:00
1:53 AM,14.0,-2.9,47,29.96,10.0,WNW,9.2,-,N/A,,Clear,290,2014-03-14 05:53:00
2:53 AM,14.0,-4.0,45,29.98,10.0,West,6.9,-,N/A,,Clear,280,2014-03-14 06:53:00
3:53 AM,10.9,-4.0,51,30.00,10.0,WSW,5.8,-,N/A,,Clear,250,2014-03-14 07:53:00
4:53 AM,10.0,-2.9,56,30.03,10.0,WSW,5.8,-,N/A,,Clear,240,2014-03-14 08:53:00
5:53 AM,12.0,-2.9,51,30.06,10.0,West,4.6,-,N/A,,Clear,260,2014-03-14 09:53:00
6:53 AM,12.0,-2.0,53,30.09,10.0,WSW,6.9,-,N/A,,Clear,250,2014-03-14 10:53:00
7:53 AM,12.9,-0.9,54,30.12,10.0,Calm,Calm,-,N/A,,Clear,0,2014-03-14 11:53:00
8:53 AM,19.0,-0.0,43,30.16,10.0,West,12.7,-,N/A,,Clear,260,2014-03-14 12:53:00
9:53 AM,21.0,1.9,44,30.16,10.0,WSW,10.4,-,N/A,,Partly Cloudy,250,2014-03-14 13:53:00
10:53 AM,24.1,5.0,44,30.16,10.0,WSW,10.4,-,N/A,,Scattered Clouds,240,2014-03-14 14:53:00
11:53 AM,27.0,8.1,45,30.13,10.0,SW,9.2,-,N/A,,Scattered Clouds,220,2014-03-14 15:53:00
12:53 PM,32.0,10.9,42,30.11,10.0,WSW,9.2,-,N/A,,Mostly Cloudy,250,2014-03-14 16:53:00
1:53 PM,34.0,12.0,40,30.07,10.0,SSW,11.5,-,N/A,,Mostly Cloudy,210,2014-03-14 17:53:00
2:53 PM,35.1,10.9,37,30.04,10.0,SW,12.7,-,N/A,,Mostly Cloudy,220,2014-03-14 18:53:00
3:53 PM,36.0,10.0,34,30.02,10.0,SSW,10.4,-,N/A,,Scattered Clouds,200,2014-03-14 19:53:00
4:53 PM,37.0,10.0,33,29.99,10.0,SSW,16.1,21.9,N/A,,Scattered Clouds,200,2014-03-14 20:53:00
5:53 PM,37.0,10.9,34,29.97,10.0,SSW,16.1,-,N/A,,Mostly Cloudy,210,2014-03-14 21:53:00
6:53 PM,36.0,15.1,43,29.96,10.0,SSW,12.7,-,N/A,,Clear,210,2014-03-14 22:53:00
7:53 PM,37.0,17.1,44,29.96,10.0,SW,18.4,27.6,N/A,,Clear,220,2014-03-14 23:53:00
8:53 PM,36.0,19.0,50,29.95,10.0,SSW,15.0,25.3,N/A,,Clear,210,2014-03-15 00:53:00
9:53 PM,36.0,19.9,52,29.94,10.0,SSW,13.8,21.9,N/A,,Overcast,210,2014-03-15 01:53:00
10:53 PM,36.0,23.0,59,29.92,10.0,SSW,13.8,-,N/A,,Overcast,210,2014-03-15 02:53:00
11:53 PM,36.0,24.1,62,29.90,10.0,SW,12.7,-,N/A,,Partly Cloudy,220,2014-03-15 03:53:00